BEIDOU-2 G4 (C04)

Last updated on Sat Aug 15 2026 00:03:26 GMT+0000 (Coordinated Universal Time)

1 37210U 10057A 26226.45703558 -.00000128 00000+0 00000+0 0 9991 2 37210 3.7877 68.5514 0006683 179.7195 39.1488 1.00271551 57870
UTC large
Height (km)
Speed (km/s)
/
Latitude / Longitude
Inclination (degrees)
Orbital Period (minutes)
Azimuth
Elevation
Range (km)
Doppler Factor

Next 0 passes for location: London (51.5072 / 0.1276)

No passes found over London.
BEIDOU-2 G4 (C04)